Location: Biltmore Gardens
(41.6070°N, 83.4666°W)
Time: 14:28:42
(UTC+00:00)

Lacrosse 5 rocket - Pass Details

Date: 14 July 2020
Orbit: 464 x 632 km, 57.0° (Epoch: 04 August)

Event Time Altitude Azimuth Distance (km) Brightness Sun altitude
Rises 04:33:05 0° 313° (NW) 2,699 5.8 -24.9°
Reaches altitude 10° 04:35:22 10° 312° (NW) 1,774 4.7 -25.0°
Enters shadow 04:38:13 44° 302° (WNW) 721 2.1 -25.2°
